Temperature
16 16 16 16 16 16 16 15 15 15 15 15 15 15 15 15 14 14 14 14 14 14 14 13 13 13 13 13 13 13 12 12 12 12 12 12 11 11 11 11 11 11 11
16 16 16 16 16 15 15 15 15 15 15 15 15 14 14 14 14 14 14 14 14 14 13 13 13 13 13 13 12 12 12 12 12 11 11 11 11 11 11 11 11 11 11
15 15 16 16 15 15 15 15 15 15 15 14 14 14 14 14 14 14 14 14 14 13 13 13 13 13 12 12 12 12 12 12 11 11 11 11 11 11 11 10 10 10 10
15 15 15 15 15 15 15 15 14 14 14 14 14 14 14 14 14 14 14 14 13 13 13 13 12 12 12 12 12 12 11 11 11 11 11 11 11 10 10 10 10 10 10
15 15 15 15 15 15 14 14 14 14 14 14 14 14 14 14 14 14 14 14 13 13 13 13 12 12 12 12 12 11 11 11 11 11 11 10 10 10 10 10 10 10 10
15 15 15 14 14 14 14 14 14 14 13 13 13 13 13 13 14 14 14 14 14 13 13 13 12 12 12 12 11 11 11 11 11 11 10 10 10 10 10 10 10 10 9
14 14 14 14 14 14 14 13 13 13 13 13 13 13 13 13 14 14 14 14 14 13 13 13 12 12 12 11 11 11 11 11 10 10 10 10 10 10 10 10 9 9 9
14 14 14 14 14 14 13 13 13 13 13 13 12 12 12 13 14 14 13 13 13 13 13 12 12 12 12 11 11 11 11 10 10 10 10 10 9 9 9 9 9 9 9
14 14 14 14 14 13 13 13 13 13 13 13 12 12 12 12 12 12 13 13 12 12 12 12 12 11 11 11 11 11 10 10 10 9 9 9 9 9 9 9 9 9 9
14 14 14 13 13 13 13 13 13 13 12 12 12 12 12 11 11 11 12 12 12 12 11 11 11 11 11 11 10 10 10 9 9 9 9 9 9 9 9 9 9 8 8
13 13 13 13 13 13 13 13 13 13 12 12 12 12 12 11 11 11 11 11 11 11 11 11 11 11 10 10 10 10 9 9 9 9 8 8 8 8 8 8 8 8 8
13 13 13 13 13 13 13 13 12 12 12 12 12 12 11 11 11 10 10 10 10 10 10 10 10 10 10 9 9 9 9 8 8 8 8 8 8 8 7 7 7 7 7
13 13 13 13 13 13 13 12 12 12 12 12 12 12 11 11 11 10 10 10 9 9 9 10 9 9 9 9 8 8 8 8 8 7 7 7 7 7 7 7 7 7 7
13 13 13 13 13 13 12 12 12 12 12 11 11 11 11 11 10 10 10 9 9 9 9 9 9 9 8 8 8 7 7 7 7 7 7 7 6 6 6 6 6 6 6
12 12 12 12 12 12 12 12 12 12 11 11 11 10 10 10 10 9 9 9 8 8 8 8 8 8 7 7 7 7 7 6 6 6 6 6 6 6 6 6 6 6 6
12 12 12 12 12 12 12 11 11 11 11 11 10 10 10 9 9 9 9 8 8 7 7 7 7 7 7 6 6 6 6 6 6 6 6 5 5 5 5 5 5 5 5
12 12 11 11 11 11 11 11 11 10 10 10 10 9 9 9 9 8 8 8 7 7 7 6 6 6 6 6 5 5 5 5 5 5 5 5 5 5 4 4 4 4 4
11 11 11 11 11 10 10 10 10 10 10 9 9 9 8 8 8 8 7 7 7 7 6 6 6 5 5 5 5 5 5 5 5 4 4 4 4 4 4 4 4 4 4
10 10 10 10 10 10 10 9 9 9 9 9 8 8 7 7 7 7 7 6 6 6 6 5 5 5 5 5 4 4 4 4 4 4 4 3 3 3 3 3 3 3 3
10 9 9 9 9 9 9 9 8 8 8 7 7 7 7 6 6 6 6 6 5 5 5 5 4 4 4 4 4 4 4 4 3 3 3 3 3 3 3 3 3 2 2
9 9 9 8 8 8 8 8 7 7 7 7 6 6 6 5 5 5 5 5 4 4 4 4 4 4 4 3 3 3 3 3 3 3 2 2 2 2 2 2 2 2 2
8 8 8 7 7 7 7 7 6 6 6 6 5 5 5 5 4 4 4 4 4 4 3 3 3 3 3 3 3 2 2 2 2 2 2 2 2 2 1 1 1 1 1
7 7 7 7 7 6 6 6 6 6 5 5 5 5 4 4 4 3 3 3 3 3 3 3 3 3 2 2 2 2 2 2 1 1 1 1 1 1 1 1 1 1 1
6 6 6 6 6 6 6 5 5 5 5 4 4 4 3 3 3 3 3 3 2 2 2 2 2 2 2 1 1 1 1 1 1 1 1 1 1 1 0 0 0 0 -0
6 6 6 6 5 5 5 5 4 4 4 4 3 3 3 3 2 2 2 2 2 2 1 1 1 1 1 1 0 0 0 0 0 0 -0 -0 0 0 0 0 -0 -0 -1
5 5 5 5 5 5 4 4 4 4 3 3 3 2 2 2 2 1 1 1 1 1 1 1 0 0 0 -0 -0 -0 -0 -0 -1 -1 -1 -1 -1 -1 -1 -1 -1 -1 -1
Wind_Speed
7 7 7 7 7 7 7 5 5 4 3 2 2 3 3 4 5 6 7 7 8 8 8 7 6 6 6 5 5 4 4 4 4 4 4 4 4 3 3 3 3 3 2
9 7 6 6 6 7 7 6 5 3 2 2 2 3 4 5 6 7 8 8 9 10 10 9 9 8 8 7 7 6 6 6 6 7 7 7 7 7 6 6 5 4 4
12 9 6 5 7 8 7 5 4 2 2 2 2 3 4 6 7 8 8 9 10 10 11 11 10 9 9 9 8 8 7 7 8 9 9 9 10 10 9 9 8 8 7
13 10 6 6 9 8 6 4 3 2 2 2 2 2 3 4 6 8 9 9 9 10 10 11 11 10 10 10 10 9 8 8 8 9 10 10 11 12 12 12 11 11 10
14 11 7 7 9 7 4 4 3 3 3 3 3 3 3 3 5 6 6 8 9 10 10 10 10 11 11 10 10 9 9 8 8 9 10 10 10 11 12 13 13 12 12
14 12 8 8 8 5 4 4 4 3 3 3 2 3 3 4 3 4 5 6 7 8 9 9 8 9 9 9 9 9 9 9 8 8 8 8 9 10 11 12 13 13 13
13 11 7 7 7 6 6 6 4 3 3 2 1 2 3 3 3 3 3 3 3 5 5 6 6 6 7 7 8 9 9 9 8 8 8 8 9 9 10 11 11 12 12
13 11 8 7 7 6 6 6 5 3 3 3 3 1 3 4 2 1 1 1 1 1 1 3 4 4 5 5 6 6 7 8 8 9 9 9 9 9 10 11 11 10 10
11 10 9 6 6 6 7 6 6 6 4 3 3 3 2 3 3 2 1 1 1 1 1 1 2 2 3 3 3 5 6 7 8 9 9 9 9 9 10 11 11 11 10
8 9 9 8 7 6 6 6 6 5 4 4 3 3 3 3 2 3 2 1 0 0 1 1 1 2 2 2 2 3 4 5 6 7 8 8 8 9 10 10 11 10 10
7 8 9 8 7 6 6 6 6 6 5 4 4 3 3 3 4 4 4 3 1 1 1 1 1 2 2 2 2 3 4 4 5 6 6 7 8 8 9 10 10 10 8
5 6 7 7 6 6 6 6 6 6 6 5 4 4 3 3 3 4 5 4 4 2 1 1 1 2 2 2 2 3 3 4 4 5 6 6 7 8 8 9 9 8 7
5 7 6 6 5 5 5 5 5 5 5 5 5 4 4 4 3 3 4 4 4 2 2 1 1 2 1 1 2 2 2 3 4 4 5 5 6 7 7 7 8 9 8
6 6 6 5 5 5 5 5 4 4 4 5 5 4 3 3 3 3 3 3 4 3 3 3 1 1 1 0 1 1 2 2 3 3 4 5 6 6 6 6 7 8 8
4 6 6 6 5 5 5 5 4 4 4 3 3 3 3 2 2 2 2 3 3 4 4 3 1 0 1 1 1 1 2 2 3 3 3 4 4 5 5 6 6 6 7
4 6 5 5 5 4 4 4 3 3 3 2 2 3 2 1 1 1 1 2 3 4 4 1 1 0 1 0 1 2 2 2 3 3 3 3 3 4 4 5 5 5 6
5 6 5 5 5 4 4 4 3 4 4 3 2 2 2 1 1 1 1 1 2 2 4 1 0 1 0 0 1 2 2 3 3 3 2 2 3 4 4 4 4 5 5
5 5 5 5 5 4 4 5 5 4 4 4 3 3 2 2 2 1 1 1 1 2 2 3 1 0 0 0 0 1 2 2 3 3 3 3 4 3 3 3 3 3 4
5 5 5 6 5 5 5 4 4 4 4 4 4 4 3 3 2 1 1 1 1 1 1 2 1 0 0 0 0 1 1 2 3 3 3 4 4 4 3 2 2 3 3
5 5 5 5 5 5 5 5 5 4 3 3 3 3 3 3 3 2 1 1 1 1 1 1 1 1 0 0 0 0 1 1 1 3 3 3 4 4 3 3 2 2 2
5 5 6 5 5 4 4 5 5 4 4 3 2 2 2 3 3 3 2 2 2 1 1 1 1 1 1 1 1 1 1 1 1 1 1 2 3 3 3 3 3 2 1
5 5 5 5 5 4 5 6 5 4 4 4 3 2 2 2 2 2 2 2 3 2 3 2 2 2 2 2 1 1 1 0 2 1 1 2 1 1 2 3 3 2 1
5 5 4 5 4 4 6 6 6 5 4 4 4 3 2 2 2 2 2 2 1 0 2 3 3 3 3 3 3 2 2 2 2 1 0 1 1 1 2 3 4 2 1
4 4 4 4 4 4 6 6 6 4 4 3 3 3 3 2 2 3 3 2 1 2 1 1 2 3 2 2 3 3 2 1 0 1 0 1 1 1 2 5 4 1 1
4 4 4 5 4 4 6 7 6 4 3 3 3 3 4 3 5 5 4 2 1 1 2 2 2 1 1 2 3 3 2 1 0 1 0 1 1 2 2 2 3 3 1
4 4 4 4 5 4 6 7 6 4 3 3 2 3 5 5 6 6 4 4 3 2 1 1 2 3 3 2 2 2 3 2 1 2 1 1 0 1 2 2 2 3 2
Wind_Direction
162 165 166 168 168 165 162 159 155 154 153 160 179 190 213 229 237 241 245 245 243 240 239 240 238 236 232 236 237 238 242 247 249 251 256 259 262 266 273 282 289 277 286
172 171 172 176 180 180 177 174 171 169 177 187 218 222 228 237 241 243 246 250 250 248 248 249 250 249 244 245 248 248 246 249 251 253 256 257 255 254 256 258 262 266 261
179 176 175 183 191 188 181 174 172 171 189 208 235 240 238 241 245 247 250 252 255 255 251 252 253 252 253 255 258 258 252 252 255 257 258 258 257 254 252 253 254 257 256
185 180 181 190 191 184 179 171 168 179 207 218 240 251 244 247 250 251 251 251 252 254 254 252 253 257 260 263 264 266 267 262 259 260 262 261 261 259 253 251 251 251 252
188 185 189 192 185 178 178 177 174 177 201 222 237 249 248 242 247 252 250 250 249 250 252 256 257 256 259 262 266 271 276 275 270 266 264 262 263 265 261 257 253 252 252
190 188 190 187 179 174 181 181 183 184 193 205 233 261 262 255 248 246 249 251 250 250 249 251 256 259 258 258 262 269 276 279 277 275 271 268 266 269 270 269 263 258 255
191 189 191 183 181 188 191 184 175 182 195 164 155 300 294 265 256 256 251 245 247 247 242 245 250 255 263 264 266 269 275 279 280 281 284 283 279 276 277 277 274 267 263
189 191 187 190 187 188 187 185 177 169 179 166 160 159 314 325 323 293 293 252 259 246 242 255 253 251 258 265 275 278 279 280 284 290 294 295 297 293 285 280 277 274 267
187 187 186 184 186 189 194 192 185 179 186 191 180 168 191 251 300 309 327 346 351 360 317 289 270 265 259 257 275 291 290 290 292 296 302 303 304 306 306 300 291 283 279
189 188 184 183 185 190 189 188 185 185 177 193 202 211 209 187 219 292 299 306 5 312 311 319 305 294 284 269 273 289 302 305 303 303 303 305 313 316 316 315 315 304 295
187 190 189 186 186 188 191 186 185 188 192 193 188 184 208 218 215 233 271 279 284 243 235 254 271 285 295 285 284 298 308 309 303 304 310 318 323 328 333 333 329 329 316
194 195 189 188 186 185 188 190 189 191 197 196 193 187 187 196 205 216 244 257 265 255 226 219 235 271 281 281 291 312 320 325 320 318 322 336 342 345 347 344 346 344 339
201 202 191 190 188 185 182 180 187 196 198 197 202 208 213 221 205 205 234 256 256 258 239 229 210 235 254 292 320 326 332 338 334 334 341 347 354 356 352 347 353 357 354
201 191 183 179 179 173 175 179 189 197 195 203 208 206 213 222 213 208 215 238 264 260 240 240 188 179 184 228 326 3 6 358 1 355 356 2 5 4 358 353 356 0 4
179 171 171 172 170 166 170 176 183 189 191 201 201 198 205 212 206 208 216 218 233 264 261 223 209 145 141 100 29 33 16 357 6 7 8 9 7 8 6 7 16 21 21
159 150 153 154 154 153 152 154 154 152 155 162 164 165 180 190 168 176 214 229 229 241 256 213 205 143 92 121 81 56 16 16 15 7 8 10 19 25 21 25 32 31 25
147 146 148 147 144 139 137 139 140 141 143 137 134 150 162 150 153 177 206 222 238 239 254 249 124 75 101 82 33 33 23 17 11 9 10 30 31 23 17 25 31 31 28
142 139 139 136 134 133 136 143 144 143 147 151 151 149 158 144 156 171 182 216 232 231 236 250 219 186 211 201 357 359 1 1 5 11 20 22 18 9 9 22 30 32 31
135 132 137 140 138 139 137 135 138 143 150 156 158 161 167 160 178 187 175 206 233 241 227 225 235 152 323 31 12 348 357 357 354 6 15 9 4 1 5 14 25 31 25
142 140 136 135 136 136 134 133 133 133 134 138 147 156 165 175 184 183 189 205 207 217 218 208 210 208 230 310 134 264 304 335 326 352 355 354 359 6 19 27 24 19 33
139 136 131 127 129 134 142 143 140 142 143 140 136 145 160 167 180 182 186 193 184 197 198 199 212 206 224 217 226 215 244 315 296 338 331 342 347 353 1 7 359 354 18
137 136 140 141 141 144 153 155 150 150 153 154 156 152 152 151 158 157 161 165 171 181 194 194 210 224 233 221 195 196 176 73 281 310 340 302 355 313 321 325 318 303 260
149 147 148 145 145 154 162 164 162 152 157 164 167 166 160 153 127 109 101 76 62 112 200 186 203 220 217 204 178 197 204 205 231 277 27 279 331 287 306 316 316 273 207
157 157 157 156 155 171 172 168 163 146 151 164 173 175 171 167 168 154 133 100 58 19 21 145 189 211 217 203 189 189 186 166 306 325 137 250 308 291 317 322 329 335 193
161 161 162 164 165 177 179 173 160 144 156 174 180 180 180 187 202 181 156 157 163 337 32 94 116 143 174 171 151 124 130 118 269 259 128 205 305 317 315 315 332 345 320
169 162 165 171 173 183 188 185 173 155 170 184 188 197 206 207 212 197 174 178 205 226 189 66 48 44 45 58 110 136 159 158 190 256 219 153 340 1 326 319 328 327 326
Height
1544 1547 1550 1552 1555 1557 1559 1561 1563 1565 1566 1567 1569 1569 1570 1571 1571 1572 1572 1572 1572 1572 1572 1572 1572 1571 1571 1570 1570 1569 1569 1568 1568 1567 1567 1566 1565 1565 1564 1564 1563 1562 1561
1543 1546 1549 1551 1554 1556 1558 1560 1562 1564 1565 1566 1567 1568 1569 1569 1570 1570 1570 1571 1571 1571 1570 1570 1570 1570 1569 1569 1568 1568 1567 1567 1566 1565 1565 1564 1564 1563 1563 1562 1561 1561 1560
1542 1545 1547 1550 1552 1554 1556 1559 1560 1562 1563 1564 1566 1566 1567 1567 1568 1568 1568 1568 1568 1568 1568 1568 1568 1568 1567 1567 1566 1566 1565 1565 1564 1563 1563 1562 1561 1561 1560 1560 1559 1559 1558
1540 1543 1545 1548 1550 1552 1554 1556 1558 1560 1561 1562 1563 1564 1565 1565 1565 1565 1565 1566 1566 1566 1566 1566 1565 1565 1565 1564 1564 1563 1563 1562 1562 1561 1560 1559 1559 1558 1558 1557 1556 1556 1555
1538 1541 1543 1546 1548 1550 1552 1554 1555 1557 1559 1560 1561 1562 1562 1562 1562 1562 1562 1562 1562 1562 1562 1562 1562 1562 1562 1562 1561 1561 1560 1559 1559 1558 1557 1556 1556 1555 1554 1554 1553 1553 1552
1535 1538 1541 1543 1545 1547 1549 1551 1553 1554 1556 1557 1558 1558 1558 1558 1558 1558 1558 1559 1559 1559 1559 1559 1559 1558 1558 1558 1558 1557 1557 1556 1556 1555 1554 1553 1552 1552 1551 1550 1549 1549 1548
1532 1535 1537 1540 1542 1544 1546 1548 1550 1551 1553 1554 1555 1554 1555 1555 1555 1555 1555 1555 1555 1555 1555 1555 1555 1555 1554 1554 1554 1554 1553 1553 1552 1551 1550 1549 1548 1548 1547 1546 1545 1545 1544
1529 1532 1534 1536 1538 1540 1542 1544 1546 1547 1549 1550 1551 1551 1551 1551 1550 1551 1551 1551 1551 1551 1551 1551 1551 1551 1551 1550 1550 1549 1549 1548 1547 1547 1546 1545 1544 1544 1543 1542 1541 1540 1540
1525 1528 1530 1532 1534 1537 1538 1540 1542 1544 1545 1547 1548 1549 1549 1547 1547 1547 1547 1547 1547 1548 1548 1547 1547 1547 1546 1546 1545 1545 1544 1544 1543 1542 1541 1541 1540 1539 1538 1537 1536 1536 1535
1521 1524 1526 1528 1530 1532 1534 1536 1538 1540 1542 1542 1543 1544 1546 1545 1545 1543 1543 1544 1544 1543 1543 1543 1543 1542 1541 1541 1540 1540 1539 1539 1538 1537 1537 1536 1535 1534 1534 1533 1532 1531 1530
1516 1519 1521 1523 1526 1528 1530 1532 1534 1536 1537 1538 1539 1540 1540 1541 1541 1541 1539 1539 1539 1539 1539 1538 1538 1537 1536 1536 1535 1535 1534 1533 1533 1533 1532 1531 1530 1529 1528 1527 1526 1525 1525
1511 1514 1517 1519 1521 1523 1525 1528 1530 1531 1532 1533 1534 1535 1535 1536 1536 1536 1535 1534 1533 1533 1533 1533 1532 1532 1531 1531 1530 1529 1529 1528 1528 1527 1527 1526 1525 1524 1524 1523 1522 1521 1520
1506 1509 1512 1514 1516 1518 1521 1523 1525 1526 1527 1528 1529 1529 1530 1531 1531 1531 1530 1529 1528 1527 1527 1527 1527 1526 1526 1525 1525 1524 1524 1523 1523 1522 1522 1521 1520 1520 1519 1519 1518 1517 1516
1503 1505 1507 1509 1511 1514 1516 1518 1519 1521 1522 1523 1523 1524 1524 1525 1525 1525 1525 1525 1523 1522 1521 1521 1521 1521 1521 1520 1519 1519 1519 1518 1517 1517 1516 1516 1515 1515 1514 1514 1513 1513 1512
1498 1501 1503 1504 1506 1508 1511 1513 1514 1515 1516 1517 1518 1518 1519 1519 1520 1520 1520 1520 1520 1517 1516 1516 1516 1515 1515 1515 1515 1514 1514 1513 1512 1512 1511 1511 1511 1510 1510 1509 1509 1509 1508
1494 1495 1498 1499 1501 1503 1505 1507 1509 1510 1511 1512 1512 1513 1513 1513 1513 1514 1514 1514 1514 1513 1511 1510 1511 1511 1510 1510 1509 1509 1509 1508 1508 1507 1507 1507 1506 1506 1505 1505 1505 1505 1504
1489 1491 1493 1495 1496 1498 1500 1502 1503 1505 1506 1506 1506 1507 1507 1507 1508 1508 1508 1509 1508 1508 1507 1506 1506 1505 1505 1505 1505 1505 1504 1504 1503 1503 1503 1502 1502 1502 1501 1501 1501 1501 1501
1485 1486 1489 1490 1492 1493 1495 1497 1498 1499 1500 1501 1501 1502 1502 1502 1503 1503 1503 1503 1503 1503 1502 1501 1501 1501 1500 1500 1500 1500 1500 1500 1499 1499 1498 1498 1498 1497 1497 1497 1497 1497 1497
1480 1482 1484 1485 1487 1488 1490 1492 1493 1494 1495 1495 1496 1497 1497 1497 1498 1498 1498 1498 1498 1498 1498 1497 1497 1496 1496 1496 1496 1495 1495 1495 1495 1495 1494 1494 1494 1493 1493 1493 1493 1493 1493
1476 1478 1479 1481 1482 1484 1485 1487 1488 1489 1490 1491 1491 1492 1492 1493 1493 1493 1493 1493 1493 1493 1493 1493 1492 1492 1492 1491 1491 1491 1491 1491 1491 1491 1490 1490 1490 1489 1489 1489 1489 1489 1490
1472 1474 1475 1476 1478 1480 1481 1482 1484 1485 1485 1486 1487 1487 1488 1488 1488 1488 1489 1489 1489 1489 1489 1488 1488 1488 1488 1488 1488 1487 1487 1487 1487 1487 1486 1486 1486 1486 1486 1486 1486 1486 1486
1468 1469 1471 1472 1474 1475 1477 1478 1479 1480 1481 1482 1482 1483 1483 1484 1484 1484 1484 1485 1485 1485 1485 1484 1484 1484 1484 1484 1484 1484 1483 1483 1483 1484 1483 1483 1482 1482 1482 1482 1482 1482 1482
1464 1466 1467 1469 1470 1471 1473 1474 1475 1476 1477 1478 1478 1479 1479 1480 1480 1480 1480 1481 1481 1481 1481 1481 1481 1480 1480 1480 1480 1480 1480 1479 1479 1479 1479 1479 1479 1479 1479 1479 1479 1479 1479
1460 1462 1463 1465 1466 1468 1469 1470 1471 1472 1473 1474 1474 1475 1475 1475 1476 1476 1476 1477 1477 1477 1477 1477 1477 1476 1476 1476 1476 1477 1477 1476 1476 1476 1476 1475 1475 1475 1475 1475 1475 1475 1475
1456 1458 1459 1461 1463 1464 1465 1466 1467 1468 1469 1470 1470 1471 1471 1471 1472 1472 1473 1473 1473 1473 1473 1473 1473 1473 1473 1473 1473 1474 1474 1473 1473 1473 1472 1472 1472 1472 1472 1472 1471 1472 1472
1452 1454 1456 1457 1459 1460 1461 1462 1463 1464 1465 1466 1466 1467 1467 1468 1468 1468 1469 1469 1470 1470 1470 1469 1470 1470 1470 1470 1470 1470 1470 1470 1470 1470 1469 1469 1468 1469 1468 1468 1468 1468 1468